Location: Poughquag
(41.6090°N, 73.6820°W)
Time: 09:45:16
(UTC-05:00)

SR - Pass Details

Date: 13 December 2023
Orbit: 574 x 868 km, 66.7° (Epoch: 25 February)

Event Time Altitude Azimuth Distance (km) Brightness Sun altitude
Rises 11:37:42 0° 277° (W) 3,380 ? 25.2°
Reaches altitude 10° 11:42:17 10° 311° (NW) 2,494 ? 25.2°
Maximum altitude 11:44:01 11° 329° (NNW) 2,414 ? 25.2°
Drops below altitude 10° 11:45:47 10° 347° (NNW) 2,516 ? 25.2°
Sets 11:50:29 0° 20° (NNE) 3,461 ? 25.2°
